Weather Roundup
Issued by NWS

Home | Current Version | Previous Version | Text Only | Print | Product List | Glossary On
Versions: 1 2 3 4 5 6 7 8 9 10 11 12 13 14 15 16 17 18 19 20 21 22 23 24 25 26 27 28 29 30 31 32 33 34 35 36 37 38 39 40 41 42 43 44 45 46 47 48 49 50
000
NZUS93 KARX 090259
HRRWXR

CURRENT HOURLY OBSERVATIONS ACROSS
MUCH OF THE UPPER MISSISSIPPI VALLEY
NATIONAL WEATHER SERVICE LA CROSSE WI
900 PM CST THU DEC 08 2016


...SOUTHEAST MINNESOTA...


CITY           SKY/WX    TMP DP  RH WIND       PRES   REMARKS
ROCHESTER      CLOUDY    18  13  80 NW16      30.44R WCI   3
ROCHESTER/MAYO CLOUDY    18  15  86 W16G23    30.45R WCI   4
WINONA         CLOUDY    23  16  74 NW9       30.46S WCI  13
AUSTIN         FLURRIES  16  10  79 W12       30.47R WCI   3
ALBERT LEA     FLURRIES  18  14  86 NW9G16    30.49R WCI   6
DODGE CENTER   LGT SNOW  16  12  86 NW12G18   30.45S WCI   3
PRESTON        FLURRIES  17  13  83 W13       30.44R WCI   4
OWATONNA       FLURRIES  16  10  79 W15       30.49R WCI   1
FARIBAULT      NOT AVBL
$$

...ELSEWHERE IN MINNESOTA...


CITY           SKY/WX    TMP DP  RH WIND       PRES   REMARKS
MINNEAPOLIS    FLURRIES  20  11  68 NW9       30.49R WCI   9
INTNL FALLS    CLOUDY    11   5  77 NW8       30.42F WCI  -1
DULUTH         FLURRIES  17   9  70 NW14G23   30.37R WCI   3
RED WING       CLOUDY    21  12  68 W6        30.46R WCI  14
REDWOOD FALLS  CLOUDY    13   6  74 NW13G21   30.56S WCI  -2
MANKATO        FLURRIES  14  10  84 NW16      30.52S WCI  -2
WORTHINGTON    CLEAR      9   5  84 NW13      30.55R WCI  -7
FAIRMONT       NOT AVBL
$$

...SOUTHWEST WISCONSIN...


CITY           SKY/WX    TMP DP  RH WIND       PRES   REMARKS
LA CROSSE      CLOUDY    25  16  68 NW12      30.44R WCI  14
PRAIRIE DU CHI CLOUDY    22  14  72 W7        30.47R WCI  14
BOSCOBEL       FLURRIES  24  17  74 W8        30.45R WCI  15
LONE ROCK      NOT AVBL
PLATTEVILLE    CLOUDY    21  18  87 W14G20    30.43S WCI   8
FORT MC COY    FLURRIES  23  18  81 W7        30.42R WCI  15
CAMP DOUGLAS   CLOUDY    23  18  80 W13       30.38R WCI  11
MAUSTON-NEW LI CLOUDY    24  19  81 W9        30.38R WCI  14
VIROQUA        CLOUDY    21  17  83 NW8       30.39R WCI  12
WIS DELLS      CLOUDY    22  17  81 W7        30.37R WCI  14
$$

...ELSEWHERE IN WISCONSIN...


CITY           SKY/WX    TMP DP  RH WIND       PRES   REMARKS
MILWAUKEE      MOCLDY    25  15  66 W14G23    30.33R WCI  13
MADISON        PTCLDY    21  15  78 W5        30.38R WCI  15
GREEN BAY      CLEAR     25  19  78 NW10      30.31R WCI  15
EAU CLAIRE     NOT AVBL
BLACK RVR FLS  FLURRIES  24  17  74 W8        30.41R WCI  15
MEDFORD        FLURRIES  20  13  73 NW10      30.31R WCI   9
WAUSAU         CLOUDY    22  12  65 NW12G21   30.31R WCI  10
WIS RAPIDS     CLOUDY    22  15  75 NW7       30.36R WCI  13
MARSHFIELD     CLOUDY    22  14  71 NW13      30.33R WCI  10
RICE LAKE      CLOUDY    21  14  73 W9        30.42R WCI  11
$$

...NORTHEAST IOWA...


CITY           SKY/WX    TMP DP  RH WIND       PRES   REMARKS
WATERLOO       FLURRIES  19  12  74 NW14      30.52R WCI   6
DUBUQUE        CLOUDY    19  13  77 NW18      30.44S WCI   4
DECORAH        CLOUDY    19  14  79 W8G14     30.44S WCI   9
MASON CITY     FLURRIES  16   9  74 NW18      30.53R WCI   0
CHARLES CITY   FLURRIES  18  10  73 NW14G21   30.50S WCI   4
OELWEIN        CLOUDY    18  10  73 NW17      30.49R WCI   2
$$

...ELSEWHERE IN IOWA...


CITY           SKY/WX    TMP DP  RH WIND       PRES   REMARKS
DES MOINES     PTCLDY    20   9  62 NW15      30.57R WCI   6
IOWA CITY      CLOUDY    24  16  71 NW9       30.53S WCI  14
FORT DODGE     CLEAR     16   5  62 NW7       30.56S WCI   6
MARSHALLTOWN   CLOUDY    20  13  74 NW16      30.53R WCI   6
CEDAR RAPIDS   FLURRIES  20  17  88 NW10      30.50R WCI   9
$$

...NORTHERN ILLINOIS...


CITY           SKY/WX    TMP DP  RH WIND       PRES   REMARKS
CHICAGO-OHARE  FLURRIES  23  16  74 W15       30.38S WCI  10
CHICAGO-MIDWAY FLURRIES  25  14  63 W13G22    30.40R WCI  14
MOLINE         CLOUDY    23  13  65 NW15G28   30.50R WCI  10
ROCKFORD       FLURRIES  23  16  74 W14G21    30.43R WCI  11
PEORIA         CLOUDY    22  13  68 NW12G22   30.52S WCI  10
$$

NOTE: "FAIR" INDICATES FEW OR NO CLOUDS BELOW 12,000 FEET WITH NO
SIGNIFICANT WEATHER AND/OR OBSTRUCTIONS TO VISIBILITY. WIND
SPEEDS ARE IN MILES-PER-HOUR.




USA.gov is the U.S. government's official web portal to all federal, state and local government web resources and services.